Hourly Data Report for July 31, 2021

RANKIN INLET A
NUNAVUT
Current Station Operator: NAVCAN

62°48'38.000" N
92°06'53.000" W
32.30 m
2303405
71083
YRT

Download Data

Hourly Data (July 2021)
Hourly Data Report for July 31, 2021
TIME
LST
Temp Definition
°C
Dew Point Definition
°C
Rel Hum Definition
%
Precip. Amount Definition
mm

Wind Dir Definition
10's deg

Wind Spd Definition
km/h
Visibility Definition
km
Stn Press Definition
kPa
Hmdx Definition


Wind Chill Definition


Weather Definition


00:00 6.2 4.6 90   23 5 24.1 101.38     Cloudy
01:00 6.1 4.5 89   18 6 24.1 101.34     LegendNANA
02:00 5.7 4.6 93   21 6 24.1 101.34     LegendNANA
03:00 5.7 4.7 93   22 4 24.1 101.35     Mostly Cloudy
04:00 5.8 4.8 94   19 4 24.1 101.38     LegendNANA
05:00 5.8 5.1 95   17 7 24.1 101.37     LegendNANA
06:00 6.5 5.6 94   20 9 24.1 101.39     Mostly Cloudy
07:00 6.8 5.8 93   22 12 24.1 101.43     LegendNANA
08:00 7.7 6.2 90   23 15 24.1 101.42     LegendNANA
09:00 8.3 6.2 87   23 18 24.1 101.39     Mostly Cloudy
10:00 9.2 7.2 87   24 16 24.1 101.40     LegendNANA
11:00 10.0 7.8 86   25 17 24.1 101.39     LegendNANA
12:00 10.6 10.0 96   25 18 3.2 101.37     Rain, Fog
13:00 12.3 10.6 89   31 32 8.1 101.37     Rain, Fog
14:00 12.2 9.0 81   32 31 24.1 101.40     LegendNANA
15:00 12.8 7.7 71   32 33 24.1 101.41     Mostly Cloudy
16:00 14.0 7.0 62   33 26 24.1 101.40     LegendNANA
17:00 14.3 4.8 52   34 33 24.1 101.40     LegendNANA
18:00 13.6 5.2 57   33 29 24.1 101.39     Mainly Clear
19:00 13.2 5.3 59   33 22 24.1 101.36     LegendNANA
20:00 11.9 4.9 62   32 20 24.1 101.34     LegendNANA
21:00 11.0 5.4 68   31 17 24.1 101.34     Mostly Cloudy
22:00 10.2 5.4 72   31 16 24.1 101.33     LegendNANA
23:00 9.7 5.8 77   29 17 24.1 101.27     LegendNANA

Notes on Data Quality.

Legend

  • E = Estimated
  • M = Missing
  • NA = Not Available*
  • [empty] = Indicates an unobserved value
Date modified: